TAP1923 LPPR-LPPT

Flight info

Callsign TAP1923
Flight time N/A
Altitude 23000
Route MANIK DCT ABRIL DCT XAMAX
Aircraft A20N/M-SDE2E3FGHIRWXY/LB1

Departure

Time 2026-05-07 18:41
Airport Francisco de Sá Carneiro Airport (LPPR)

Arrival

Time N/A
Airport Lisbon Humberto Delgado Airport (LPPT)
Time Latitude Longitude Altitude Speed Heading
2026-05-07 18:26 41.23795 -8.67360 237 ft 0 kts 49°
2026-05-07 18:34 41.23791 -8.67366 236 ft 2 kts 49°
2026-05-07 18:34 41.23778 -8.67385 236 ft 3 kts 50°
2026-05-07 18:34 41.23766 -8.67405 236 ft 2 kts 50°
2026-05-07 18:34 41.23756 -8.67423 236 ft 3 kts 80°
2026-05-07 18:35 41.23758 -8.67445 236 ft 3 kts 134°
2026-05-07 18:35 41.23774 -8.67460 236 ft 3 kts 159°
2026-05-07 18:35 41.23785 -8.67465 236 ft 0 kts 169°
2026-05-07 18:37 41.23777 -8.67463 236 ft 4 kts 169°
2026-05-07 18:37 41.23725 -8.67449 236 ft 12 kts 169°
2026-05-07 18:38 41.23636 -8.67482 236 ft 17 kts 237°
2026-05-07 18:38 41.23608 -8.67623 233 ft 13 kts 259°
2026-05-07 18:38 41.23601 -8.67676 232 ft 0 kts 260°
2026-05-07 18:38 41.23599 -8.67687 230 ft 4 kts 259°
2026-05-07 18:39 41.23590 -8.67763 229 ft 11 kts 272°
2026-05-07 18:39 41.23629 -8.67817 228 ft 7 kts 348°
2026-05-07 18:39 41.23641 -8.67820 228 ft 0 kts 348°
2026-05-07 18:40 41.23765 -8.67852 224 ft 48 kts 348°
2026-05-07 18:40 41.24312 -8.67996 212 ft 108 kts 348°
2026-05-07 18:40 41.25208 -8.68231 192 ft 151 kts 348°
2026-05-07 18:41 41.26246 -8.68487 651 ft 154 kts 348°
2026-05-07 18:41 41.27315 -8.68764 1231 ft 157 kts 347°
2026-05-07 18:41 41.28405 -8.69045 1769 ft 161 kts 347°
2026-05-07 18:41 41.29539 -8.69347 2145 ft 174 kts 346°
2026-05-07 18:42 41.30792 -8.69685 2413 ft 193 kts 346°
2026-05-07 18:42 41.32177 -8.70058 2736 ft 215 kts 347°
2026-05-07 18:42 41.33730 -8.70466 3171 ft 240 kts 347°
2026-05-07 18:42 41.35443 -8.70915 3800 ft 260 kts 347°
2026-05-07 18:43 41.37247 -8.71389 4692 ft 269 kts 347°
2026-05-07 18:43 41.39104 -8.71918 5591 ft 276 kts 339°
2026-05-07 18:43 41.40755 -8.73216 6428 ft 280 kts 312°
2026-05-07 18:43 41.41814 -8.75351 7293 ft 276 kts 284°
2026-05-07 18:44 41.42029 -8.77856 8196 ft 273 kts 258°
2026-05-07 18:44 41.41610 -8.80331 9083 ft 275 kts 246°
2026-05-07 18:44 41.40643 -8.82509 9979 ft 275 kts 225°
2026-05-07 18:44 41.39120 -8.84121 10493 ft 290 kts 204°
2026-05-07 18:45 41.37111 -8.84816 10798 ft 312 kts 181°
2026-05-07 18:45 41.34910 -8.84448 11348 ft 324 kts 169°
2026-05-07 18:45 41.32694 -8.83816 12205 ft 328 kts 168°
2026-05-07 18:45 41.30446 -8.83157 13016 ft 333 kts 168°
2026-05-07 18:46 41.28163 -8.82509 13813 ft 338 kts 168°
2026-05-07 18:46 41.25842 -8.81875 14535 ft 343 kts 169°
2026-05-07 18:46 41.23491 -8.81247 15254 ft 347 kts 169°
2026-05-07 18:46 41.21108 -8.80618 15969 ft 351 kts 169°
2026-05-07 18:47 41.18693 -8.79983 16668 ft 356 kts 169°
2026-05-07 18:47 41.16248 -8.79341 17363 ft 360 kts 169°
2026-05-07 18:47 41.13774 -8.78690 18048 ft 365 kts 169°
2026-05-07 18:47 41.11267 -8.78031 18659 ft 369 kts 169°
2026-05-07 18:48 41.08734 -8.77364 19268 ft 373 kts 169°
2026-05-07 18:48 41.06179 -8.76680 19864 ft 377 kts 167°
2026-05-07 18:48 41.03648 -8.75719 20471 ft 381 kts 163°
2026-05-07 18:48 41.01104 -8.74661 21045 ft 385 kts 163°
2026-05-07 18:49 40.98538 -8.73601 21633 ft 388 kts 164°
2026-05-07 18:49 40.95944 -8.72535 22203 ft 393 kts 164°
2026-05-07 18:49 40.93321 -8.71458 22719 ft 397 kts 164°
2026-05-07 18:49 40.90284 -8.70214 22900 ft 398 kts 164°
2026-05-07 18:50 40.87641 -8.69133 22921 ft 398 kts 164°
2026-05-07 18:50 40.84997 -8.68052 22907 ft 398 kts 165°
2026-05-07 18:50 40.82352 -8.66972 22917 ft 397 kts 165°
2026-05-07 18:50 40.80391 -8.66172 22910 ft 397 kts 165°
2026-05-07 18:51 40.77750 -8.65095 22910 ft 397 kts 165°
2026-05-07 18:51 40.75111 -8.64020 22918 ft 397 kts 165°
2026-05-07 18:51 40.72473 -8.62946 22908 ft 397 kts 165°
2026-05-07 18:51 40.69805 -8.62096 22914 ft 394 kts 176°
2026-05-07 18:52 40.67088 -8.62180 22914 ft 390 kts 191°
2026-05-07 18:52 40.64492 -8.63169 22917 ft 388 kts 200°
2026-05-07 18:52 40.61964 -8.64401 22914 ft 387 kts 201°
2026-05-07 18:52 40.59446 -8.65641 22917 ft 386 kts 201°
2026-05-07 18:53 40.56927 -8.66856 22921 ft 385 kts 201°
2026-05-07 18:53 40.54404 -8.68047 22921 ft 385 kts 200°
2026-05-07 18:53 40.51881 -8.69221 22923 ft 385 kts 200°
2026-05-07 18:53 40.49354 -8.70389 22920 ft 384 kts 200°
2026-05-07 18:54 40.46835 -8.71548 22920 ft 384 kts 200°
2026-05-07 18:54 40.44317 -8.72706 22923 ft 383 kts 200°
2026-05-07 18:54 40.41804 -8.73861 22920 ft 383 kts 200°
2026-05-07 18:54 40.39289 -8.75016 22924 ft 383 kts 200°
2026-05-07 18:55 40.36778 -8.76169 22916 ft 382 kts 200°
2026-05-07 18:55 40.34266 -8.77321 22918 ft 382 kts 200°
2026-05-07 18:55 40.31759 -8.78471 22926 ft 382 kts 200°
2026-05-07 18:55 40.29250 -8.79620 22921 ft 382 kts 200°
2026-05-07 18:56 40.26748 -8.80765 22921 ft 381 kts 200°
2026-05-07 18:56 40.24245 -8.81910 22918 ft 381 kts 200°
2026-05-07 18:56 40.21745 -8.83052 22922 ft 380 kts 200°
2026-05-07 18:56 40.19246 -8.84193 22917 ft 380 kts 200°
2026-05-07 18:57 40.16753 -8.85331 22920 ft 380 kts 200°
2026-05-07 18:57 40.14261 -8.86467 22918 ft 380 kts 200°
2026-05-07 18:57 40.11766 -8.87604 22916 ft 379 kts 200°
2026-05-07 18:57 40.09274 -8.88738 22920 ft 379 kts 200°
2026-05-07 18:58 40.06820 -8.89854 22915 ft 378 kts 200°
2026-05-07 18:58 40.04333 -8.90984 22919 ft 379 kts 200°
2026-05-07 18:58 40.01845 -8.92114 22915 ft 378 kts 200°
2026-05-07 18:58 39.99359 -8.93242 22915 ft 378 kts 200°
2026-05-07 18:59 39.96875 -8.94369 22911 ft 378 kts 200°
2026-05-07 18:59 39.94391 -8.95494 22914 ft 378 kts 200°
2026-05-07 18:59 39.91909 -8.96618 22916 ft 378 kts 200°
2026-05-07 18:59 39.89426 -8.97741 22911 ft 378 kts 200°
2026-05-07 19:00 39.86947 -8.98861 22909 ft 377 kts 200°
2026-05-07 19:00 39.84471 -8.99980 22911 ft 377 kts 200°
2026-05-07 19:00 39.81994 -9.01098 22910 ft 377 kts 200°
2026-05-07 19:00 39.79517 -9.02215 22909 ft 376 kts 200°
2026-05-07 19:01 39.77015 -9.03342 22911 ft 376 kts 201°
2026-05-07 19:01 39.74572 -9.04443 22914 ft 376 kts 201°
2026-05-07 19:01 39.72068 -9.05570 22915 ft 376 kts 201°
2026-05-07 19:01 39.69629 -9.06666 22918 ft 376 kts 201°
2026-05-07 19:02 39.67153 -9.07779 22916 ft 376 kts 201°
2026-05-07 19:02 39.64680 -9.08889 22919 ft 376 kts 201°
2026-05-07 19:02 39.62181 -9.10010 22923 ft 376 kts 201°
2026-05-07 19:02 39.59742 -9.11103 22918 ft 376 kts 201°
2026-05-07 19:03 39.57271 -9.12210 22922 ft 375 kts 201°
2026-05-07 19:03 39.54806 -9.13313 22927 ft 375 kts 201°
2026-05-07 19:03 39.52336 -9.14418 22932 ft 375 kts 201°
2026-05-07 19:03 39.49870 -9.15521 22929 ft 375 kts 201°
2026-05-07 19:04 39.47396 -9.16626 22927 ft 376 kts 201°
2026-05-07 19:04 39.44925 -9.17728 22930 ft 376 kts 201°
2026-05-07 19:04 39.42572 -9.18778 22927 ft 376 kts 201°
2026-05-07 19:04 39.40100 -9.19879 22931 ft 376 kts 201°
2026-05-07 19:05 39.37627 -9.20980 22815 ft 376 kts 201°
2026-05-07 19:05 39.35154 -9.22081 22552 ft 375 kts 200°
2026-05-07 19:05 39.32700 -9.23172 22284 ft 373 kts 200°
2026-05-07 19:05 39.30253 -9.24259 22018 ft 371 kts 200°
2026-05-07 19:06 39.27815 -9.25341 21767 ft 370 kts 200°
2026-05-07 19:06 39.22959 -9.27496 21237 ft 368 kts 200°
2026-05-07 19:06 39.20528 -9.28574 20725 ft 369 kts 200°
2026-05-07 19:07 39.18102 -9.29648 20168 ft 367 kts 200°
2026-05-07 19:07 39.15698 -9.30712 19635 ft 364 kts 199°
2026-05-07 19:07 39.13315 -9.31766 19098 ft 361 kts 199°
2026-05-07 19:07 39.10947 -9.32813 18531 ft 358 kts 199°
2026-05-07 19:08 39.08598 -9.33851 17992 ft 355 kts 199°
2026-05-07 19:08 39.06276 -9.34876 17437 ft 351 kts 199°
2026-05-07 19:08 39.04047 -9.35859 16945 ft 346 kts 199°
2026-05-07 19:08 39.01723 -9.36883 16405 ft 343 kts 199°
2026-05-07 19:09 38.99491 -9.37866 15898 ft 339 kts 199°
2026-05-07 19:09 38.97264 -9.38846 15382 ft 337 kts 198°
2026-05-07 19:09 38.95059 -9.39815 14877 ft 334 kts 198°
2026-05-07 19:09 38.92867 -9.40779 14371 ft 332 kts 198°
2026-05-07 19:10 38.90687 -9.41737 13870 ft 330 kts 198°
2026-05-07 19:10 38.88521 -9.42688 13338 ft 328 kts 198°
2026-05-07 19:10 38.86376 -9.43629 12840 ft 324 kts 198°
2026-05-07 19:10 38.84254 -9.44557 12357 ft 321 kts 198°
2026-05-07 19:11 38.82148 -9.45478 11860 ft 318 kts 198°
2026-05-07 19:11 38.80060 -9.46392 11381 ft 316 kts 198°
2026-05-07 19:11 38.77988 -9.47298 10900 ft 313 kts 198°
2026-05-07 19:11 38.75932 -9.48198 10423 ft 312 kts 198°
2026-05-07 19:12 38.73904 -9.49086 10192 ft 302 kts 198°
2026-05-07 19:12 38.71962 -9.49934 10055 ft 288 kts 198°
2026-05-07 19:12 38.70103 -9.50745 9869 ft 278 kts 198°
2026-05-07 19:12 38.68288 -9.51535 9622 ft 271 kts 198°
2026-05-07 19:13 38.66508 -9.52308 9421 ft 273 kts 198°
2026-05-07 19:13 38.64687 -9.53098 9051 ft 278 kts 198°
2026-05-07 19:13 38.62858 -9.53892 8669 ft 277 kts 198°
2026-05-07 19:13 38.61040 -9.54679 8288 ft 275 kts 197°
2026-05-07 19:14 38.59180 -9.55109 8014 ft 269 kts 182°
2026-05-07 19:14 38.57354 -9.54898 7943 ft 259 kts 169°
2026-05-07 19:14 38.55644 -9.54427 7938 ft 243 kts 170°
2026-05-07 19:14 38.54026 -9.54012 7941 ft 236 kts 170°
2026-05-07 19:15 38.52397 -9.53606 7940 ft 239 kts 171°
2026-05-07 19:15 38.50773 -9.53188 7938 ft 238 kts 167°
2026-05-07 19:15 38.49219 -9.52441 7941 ft 241 kts 154°
2026-05-07 19:15 38.47805 -9.51284 7936 ft 242 kts 148°
2026-05-07 19:16 38.46416 -9.50079 7940 ft 241 kts 148°
2026-05-07 19:16 38.45025 -9.48890 7942 ft 241 kts 148°
2026-05-07 19:16 38.43628 -9.47705 7939 ft 241 kts 149°
2026-05-07 19:16 38.42249 -9.46487 7940 ft 242 kts 143°
2026-05-07 19:17 38.41076 -9.44937 7943 ft 245 kts 129°
2026-05-07 19:17 38.40130 -9.43124 7945 ft 245 kts 126°
2026-05-07 19:17 38.39191 -9.41310 7944 ft 245 kts 127°
2026-05-07 19:17 38.38241 -9.39503 7941 ft 245 kts 127°